[[{"header":{"parameterUnit":"m.s-1","parameterCategory":1,"la1":30.2991,"la2":30.254,"lo1":-89.0895,"lo2":-89.0444,"dy":0.0017,"dx":0.0017,"nx":28,"ny":28,"refTime":"2025-12-23T03:00:00:Z","depth":0,"parameterNumber":2,"parameterNumberName":"U-component_of_WINDS"},"data":[0,0,0,0,0,0,0,0,0,0,0,0,0,0,0,0,0,0,0,0,0,0,0,0,0,0,0,0,0,0,0,0,0,0,0,0,0,0,0,0,0,0,0,0,0,0,0,0,0,0,0,0,0,0,0,0,0,0,-0.3258,-0.3257,0,-0.3185,-0.3184,-0.3183,-0.3098,-0.3096,-0.3095,-0.3094,-0.3019,-0.3018,-0.3017,0,0,0,0,0,0,0,0,0,0,0,0,0,-0.3325,-0.3324,-0.3258,-0.3257,-0.3257,-0.3185,-0.3184,-0.3183,-0.3098,-0.3096,-0.3095,-0.3093,-0.3019,-0.3018,-0.3017,0,0,0,0,0,0,0,0,0,0,0,0,0,-0.3279,-0.3324,-0.3258,-0.3205,-0.32,-0.3185,-0.3184,-0.3183,-0.3098,-0.3096,-0.3094,-0.3093,-0.3019,-0.3018,-0.3017,-0.3048,0,0,-0.3013,-0.3013,0,0,0,0,0,0,0,0,-0.3281,-0.3276,-0.3214,-0.3209,-0.3203,-0.3148,-0.318,-0.3138,-0.3099,-0.3137,-0.3094,-0.3092,-0.3063,-0.3058,-0.3049,-0.3045,-0.3041,-0.3013,-0.3012,-0.3012,-0.3011,0,0,0,0,0,0,0,-0.3285,-0.3279,-0.3229,-0.3213,-0.3207,-0.3185,-0.3177,-0.3171,-0.3112,-0.3133,-0.3127,-0.3119,-0.306,-0.305,-0.3046,-0.304,-0.3013,-0.3012,-0.3011,-0.3011,-0.3059,-0.3061,0,0,0,0,0,0,-0.3296,-0.3282,-0.3231,-0.3227,-0.3238,-0.3186,-0.3176,-0.3168,-0.3112,-0.3101,-0.3121,-0.3116,-0.3053,-0.3048,-0.3043,-0.3077,-0.3012,-0.3011,-0.301,-0.3057,-0.3059,-0.3061,0,0,0,0,0,0,-0.3298,-0.3292,-0.3234,-0.3253,-0.3244,-0.3187,-0.3178,-0.3167,-0.3158,-0.3102,-0.3091,-0.3122,-0.3051,-0.3045,-0.3048,-0.3073,-0.301,-0.3009,-0.3054,-0.3057,-0.306,-0.3144,0,0,0,0,0,0,-0.33,-0.3293,-0.3305,-0.3254,-0.3243,-0.324,-0.318,-0.3167,-0.3156,-0.3148,-0.3101,-0.3091,-0.3049,-0.305,-0.3047,-0.307,-0.3008,-0.3052,-0.3056,-0.3059,-0.3139,-0.315,-0.3159,0,0,0,0,0,-0.3303,-0.3331,-0.3306,-0.33,-0.3256,-0.3242,-0.3236,-0.3188,-0.3158,-0.3169,-0.3134,-0.3092,-0.3071,-0.3051,-0.3046,-0.307,-0.305,-0.3055,-0.3059,-0.3134,-0.3147,-0.3159,0,0,0,0,0,0,-0.3386,-0.3323,-0.3294,-0.3307,-0.3281,-0.3227,-0.324,-0.3203,-0.3184,-0.3178,-0.3119,-0.3109,-0.3119,-0.3094,-0.3073,-0.3098,-0.3054,-0.3058,-0.3113,-0.3125,-0.3135,-0.3141,-0.3007,0,0,0,0,0,-0.3406,-0.34,-0.3345,-0.3361,-0.335,-0.3297,-0.3289,-0.3255,-0.3225,-0.3213,-0.3178,-0.315,-0.3137,-0.313,-0.3115,-0.3135,-0.3124,-0.3149,-0.3159,-0.3168,-0.3172,-0.3181,-0.3192,-0.3076,-0.3076,-0.3076,0,0,-0.3447,-0.3412,-0.3411,-0.3377,-0.3353,-0.3348,-0.3288,-0.3285,-0.3281,-0.3212,-0.3213,-0.3186,-0.3152,-0.3163,-0.3167,-0.3144,-0.3201,-0.3173,-0.318,-0.318,-0.3187,-0.3198,-0.3208,-0.3079,-0.3079,-0.3078,0,0,-0.3519,-0.3492,-0.3503,-0.3479,-0.3443,-0.3408,-0.3411,-0.3363,-0.3343,-0.3343,-0.3291,-0.3285,-0.3264,-0.3242,-0.3228,-0.3293,-0.3254,-0.3289,-0.3342,-0.3352,-0.3361,-0.3369,-0.3392,-0.3401,-0.3293,-0.3294,-0.3294,0,-0.3574,-0.3565,-0.3513,-0.3513,-0.35,-0.3438,-0.3449,-0.3429,-0.3389,-0.3382,-0.3356,-0.3329,-0.3301,-0.3307,-0.3323,-0.3314,-0.3315,-0.3294,-0.3364,-0.3371,-0.3377,-0.3399,-0.3408,-0.3298,-0.3298,-0.3297,-0.3297,0,-0.3635,-0.3629,-0.3643,-0.3607,-0.3595,-0.3601,-0.355,-0.3544,-0.3511,-0.3479,-0.348,-0.3444,-0.3421,-0.342,-0.3387,-0.3422,-0.3409,-0.3375,-0.333,-0.3394,-0.3414,-0.3422,-0.3305,-0.3303,-0.3302,-0.3301,0,0,-0.3757,-0.3693,-0.3699,-0.3682,-0.3638,-0.3632,-0.3635,-0.3613,-0.361,-0.3585,-0.3586,-0.357,-0.3538,-0.3523,-0.3487,-0.3495,-0.355,-0.346,-0.3458,-0.3478,-0.3587,-0.3613,-0.3624,-0.3524,-0.3525,-0.3526,-0.359,0,-0.3822,-0.3823,-0.3777,-0.3792,-0.3786,-0.3728,-0.373,-0.3704,-0.3674,-0.3665,-0.3632,-0.3622,-0.358,-0.357,-0.3577,-0.3542,-0.3571,-0.3537,-0.3525,-0.3525,-0.3536,-0.3634,-0.3661,-0.3723,-0.3597,-0.3598,-0.3599,0,-0.3897,-0.3877,-0.3891,-0.3847,-0.3843,-0.3846,-0.3822,-0.3814,-0.3783,-0.3761,-0.3744,-0.3703,-0.3703,-0.3661,-0.3661,-0.3639,-0.3631,-0.3614,-0.3615,-0.3612,-0.3566,-0.3634,-0.3741,-0.3751,-0.3611,-0.361,-0.3609,0,-0.3985,-0.3962,-0.3967,-0.3955,-0.3903,-0.3907,-0.3886,-0.3852,-0.3842,-0.3821,-0.3814,-0.3794,-0.3783,-0.3769,-0.3724,-0.3697,-0.3729,-0.3683,-0.3711,-0.3713,-0.3721,-0.3721,-0.3829,-0.3716,-0.3716,-0.3715,-0.3715,0,-0.4062,-0.4073,-0.4006,-0.401,-0.4021,-0.3968,-0.3981,-0.3953,-0.3925,-0.3922,-0.387,-0.3869,-0.3809,-0.3801,-0.3766,-0.3772,-0.3767,-0.375,-0.374,-0.3755,-0.3757,-0.3749,-0.3744,-0.3718,-0.3717,-0.3717,-0.3716,0,-0.4163,-0.4118,-0.4121,-0.4072,-0.406,-0.407,-0.4028,-0.403,-0.3997,-0.3995,-0.3991,-0.394,-0.3928,-0.3882,-0.3859,-0.3835,-0.3853,-0.3834,-0.3864,-0.3858,-0.3889,-0.3887,-0.3995,-0.4007,-0.3887,-0.3888,-0.3889,0,-0.4215,-0.4222,-0.4174,-0.4169,-0.415,-0.4142,-0.4132,-0.408,-0.4071,-0.4037,-0.4043,-0.4027,-0.4011,-0.3995,-0.3956,-0.3939,-0.3919,-0.3959,-0.3916,-0.3931,-0.3921,-0.3921,-0.3922,-0.3968,-0.397,-0.3971,-0.3972,0,-0.4312,-0.429,-0.4277,-0.4257,-0.4246,-0.4228,-0.4206,-0.4205,-0.4147,-0.414,-0.4128,-0.4116,-0.4093,-0.4078,-0.4054,-0.4032,-0.3993,-0.3986,-0.3991,-0.4006,-0.4023,-0.4015,-0.3889,-0.3983,-0.3982,-0.3981,-0.3981,-0.398,-0.439,-0.4394,-0.4362,-0.4349,-0.4328,-0.4309,-0.4308,-0.4276,-0.4264,-0.4242,-0.4212,-0.4204,-0.4173,-0.4136,-0.4118,-0.411,-0.4088,-0.4097,-0.4099,-0.4102,-0.4109,-0.4024,-0.4106,-0.4105,-0.4105,-0.4105,-0.4104,0,-0.4485,-0.4462,-0.4451,-0.4422,-0.4413,-0.4377,-0.4352,-0.4346,-0.4339,-0.4314,-0.43,-0.4286,-0.4272,-0.4232,-0.4214,-0.4216,-0.4197,-0.4213,-0.4212,-0.4208,-0.4129,-0.4126,-0.4228,-0.4228,-0.4228,-0.4228,-0.4228,-0.4228,-0.4534,-0.4539,-0.4513,-0.4508,-0.4483,-0.4475,-0.4464,-0.4446,-0.4426,-0.4413,-0.4401,-0.4375,-0.4344,-0.4323,-0.4308,-0.4297,-0.4293,-0.4315,-0.4298,-0.4225,-0.4213,-0.4202,-0.4199,-0.4314,-0.4314,-0.4376,-0.4377,-0.4378]},{"header":{"parameterUnit":"m.s-1","parameterCategory":1,"la1":30.2991,"la2":30.254,"lo1":-89.0895,"lo2":-89.0444,"dy":0.0017,"dx":0.0017,"nx":28,"ny":28,"refTime":"2025-12-23T03:00:00:Z","depth":0,"parameterNumber":3,"parameterNumberName":"V-component_of_WINDS"},"data":[0,0,0,0,0,0,0,0,0,0,0,0,0,0,0,0,0,0,0,0,0,0,0,0,0,0,0,0,0,0,0,0,0,0,0,0,0,0,0,0,0,0,0,0,0,0,0,0,0,0,0,0,0,0,0,0,0,0,0.2404,0.2405,0,0.2412,0.2412,0.2412,0.243,0.243,0.243,0.2431,0.2439,0.2439,0.2438,0,0,0,0,0,0,0,0,0,0,0,0,0,0.2407,0.2406,0.2404,0.2405,0.2405,0.2412,0.2412,0.2412,0.243,0.243,0.243,0.2431,0.2439,0.2439,0.2438,0,0,0,0,0,0,0,0,0,0,0,0,0,0.2409,0.2406,0.2404,0.2414,0.2415,0.2412,0.2412,0.2412,0.2429,0.243,0.2431,0.2431,0.2439,0.2439,0.2438,0.2426,0,0,0.2438,0.2438,0,0,0,0,0,0,0,0,0.2409,0.2409,0.2413,0.2414,0.2415,0.242,0.2415,0.2417,0.2429,0.2424,0.2431,0.2431,0.2432,0.2433,0.2433,0.2426,0.2427,0.2438,0.2438,0.2438,0.2438,0,0,0,0,0,0,0,0.2408,0.2409,0.2407,0.2413,0.2414,0.2418,0.2419,0.2416,0.2425,0.2425,0.2426,0.2426,0.2433,0.2433,0.2433,0.2427,0.2438,0.2438,0.2437,0.2437,0.2409,0.2409,0,0,0,0,0,0,0.2407,0.2408,0.2407,0.2408,0.2413,0.2418,0.2419,0.2418,0.2425,0.2427,0.2426,0.2427,0.2433,0.2433,0.2433,0.2418,0.2438,0.2437,0.2437,0.241,0.2409,0.2409,0,0,0,0,0,0,0.2407,0.2407,0.2407,0.2408,0.2409,0.2417,0.2416,0.2418,0.2418,0.2426,0.2428,0.2424,0.2433,0.2434,0.2427,0.2419,0.2437,0.2437,0.2411,0.241,0.2409,0.2389,0,0,0,0,0,0,0.2407,0.2406,0.2402,0.2408,0.2408,0.2401,0.2415,0.2418,0.2417,0.2419,0.2425,0.2426,0.2434,0.2428,0.2427,0.2419,0.2437,0.2412,0.241,0.2409,0.239,0.2387,0.2385,0,0,0,0,0,0.2407,0.2396,0.2401,0.2401,0.2403,0.24,0.24,0.2409,0.2417,0.2412,0.2417,0.2426,0.242,0.2427,0.2426,0.2418,0.2412,0.2411,0.2409,0.2391,0.2388,0.2385,0,0,0,0,0,0,0.2389,0.2397,0.2403,0.2394,0.2396,0.2403,0.2397,0.2405,0.2405,0.2407,0.2418,0.2419,0.2411,0.2414,0.2421,0.2406,0.2418,0.2416,0.2404,0.2401,0.2398,0.2397,0.2437,0,0,0,0,0,0.2384,0.2381,0.2388,0.238,0.238,0.2389,0.2388,0.2394,0.2397,0.2398,0.2403,0.2405,0.2404,0.2402,0.2402,0.2391,0.2392,0.2385,0.2382,0.238,0.2378,0.2372,0.2369,0.2404,0.2404,0.2404,0,0,0.2374,0.2378,0.2375,0.2376,0.2379,0.2375,0.2389,0.2385,0.2383,0.2397,0.2391,0.2395,0.2398,0.2389,0.2386,0.2392,0.2369,0.2378,0.2376,0.2376,0.237,0.2367,0.2364,0.2403,0.2403,0.2404,0,0,0.2353,0.2356,0.2349,0.2351,0.2354,0.2359,0.2358,0.2363,0.2366,0.236,0.2371,0.2368,0.2365,0.2367,0.2368,0.2347,0.2355,0.2346,0.2332,0.2325,0.2323,0.232,0.2312,0.2309,0.2345,0.2345,0.2345,0,0.234,0.2335,0.2344,0.2339,0.2339,0.2352,0.2344,0.2346,0.2348,0.2348,0.2355,0.2351,0.2355,0.2346,0.2341,0.2341,0.2339,0.2345,0.2322,0.232,0.2318,0.231,0.2307,0.2344,0.2344,0.2344,0.2344,0,0.2318,0.2315,0.2308,0.231,0.2309,0.2303,0.2311,0.2309,0.2316,0.232,0.2314,0.2318,0.2318,0.2317,0.2323,0.2308,0.2312,0.232,0.2332,0.2313,0.2306,0.2303,0.2342,0.2342,0.2343,0.2343,0,0,0.2287,0.2293,0.2291,0.2291,0.2295,0.2293,0.2287,0.2286,0.2284,0.2286,0.2281,0.2278,0.2285,0.2286,0.2293,0.2287,0.2269,0.2296,0.2297,0.229,0.2253,0.2246,0.2242,0.2275,0.2275,0.2274,0.2252,0,0.2267,0.2257,0.2265,0.2253,0.225,0.2261,0.2256,0.2258,0.2262,0.226,0.2264,0.2262,0.2272,0.2273,0.2268,0.2273,0.2262,0.2274,0.227,0.227,0.2268,0.2239,0.2232,0.2211,0.225,0.2249,0.2249,0,0.2242,0.2242,0.223,0.2234,0.2233,0.2228,0.2227,0.2225,0.2227,0.2231,0.2231,0.2239,0.2233,0.2245,0.2237,0.2245,0.2244,0.2246,0.2245,0.2245,0.2258,0.2237,0.2205,0.2201,0.2245,0.2245,0.2245,0,0.2219,0.2216,0.2208,0.2208,0.2213,0.2209,0.2211,0.2214,0.2213,0.2213,0.2212,0.2211,0.2211,0.221,0.2217,0.2225,0.2208,0.2221,0.221,0.221,0.2206,0.2206,0.2172,0.2206,0.2206,0.2206,0.2206,0,0.2196,0.2188,0.2198,0.2193,0.2184,0.2193,0.2184,0.2187,0.2189,0.2185,0.2196,0.2192,0.2202,0.2199,0.2205,0.2197,0.2197,0.2199,0.2201,0.2198,0.2197,0.2197,0.2198,0.2206,0.2206,0.2206,0.2206,0,0.2169,0.2175,0.2167,0.2172,0.2173,0.2166,0.217,0.2166,0.2171,0.2165,0.2164,0.2172,0.2168,0.2176,0.2174,0.2178,0.2166,0.2171,0.2165,0.2166,0.2155,0.2156,0.2119,0.2115,0.2152,0.2152,0.2151,0,0.2153,0.2147,0.2151,0.2148,0.2149,0.2146,0.2145,0.2153,0.2151,0.2153,0.2148,0.2146,0.2144,0.2138,0.2144,0.2142,0.2146,0.2133,0.2146,0.2143,0.2145,0.2145,0.2144,0.213,0.213,0.213,0.2129,0,0.2124,0.2127,0.2125,0.2123,0.2121,0.212,0.212,0.2118,0.2127,0.2124,0.2121,0.2119,0.2117,0.2114,0.2113,0.2116,0.2124,0.2125,0.2123,0.2119,0.2116,0.2117,0.2157,0.2126,0.2126,0.2127,0.2127,0.2127,0.2101,0.2096,0.2098,0.2095,0.2095,0.2095,0.2091,0.2094,0.2091,0.209,0.2095,0.209,0.2092,0.2092,0.2093,0.2089,0.2095,0.2091,0.209,0.2089,0.2087,0.2117,0.2089,0.209,0.209,0.209,0.209,0,0.2072,0.2074,0.207,0.207,0.2067,0.2075,0.2075,0.2072,0.2067,0.2068,0.2066,0.2062,0.2059,0.2064,0.2061,0.2058,0.2061,0.2057,0.2057,0.2057,0.2082,0.2084,0.2054,0.2054,0.2054,0.2054,0.2054,0.2054,0.2057,0.2048,0.2051,0.2043,0.2045,0.2039,0.2039,0.2038,0.2039,0.2033,0.2031,0.2034,0.2036,0.2034,0.2032,0.2033,0.2031,0.2025,0.2028,0.2052,0.2055,0.2058,0.206,0.2025,0.2025,0.2003,0.2002,0.2002]}]]